Regional Weather Roundup
Issued by NWS Charleston, WV

Home | Current Version | Previous Version | Graphics & Text | Print | Product List | Glossary On
Versions: 1 2 3 4 5 6 7 8 9 10 11 12 13 14 15 16 17 18 19 20 21 22 23 24 25 26 27 28 29 30 31 32 33 34 35 36 37 38 39 40 41 42 43 44 45 46 47 48 49 50
000
ASUS41 KRLX 291910
RWRRLX
West Virginia Regional Weather Roundup
National Weather Service Charleston WV
300 PM EDT MON JUN 29 2015

Note: "fair" indicates few or no clouds below 12,000 feet with no
significant weather and/or obstructions to visibility.

WVZ003-292000-
Northern Panhandle of West Virginia

CITY           SKY/WX    TMP DP  RH WIND       PRES   REMARKS
WHEELING       LGT RAIN  69  59  70 SW5       29.94F
$$

WVZ009-292000-
Northwest West Virginia

CITY           SKY/WX    TMP DP  RH WIND       PRES   REMARKS
PARKERSBURG    LGT RAIN  69  62  78 SE7       29.94F
$$

WVZ006-292000-
Western West Virginia

CITY           SKY/WX    TMP DP  RH WIND       PRES   REMARKS
HUNTINGTON     PTSUNNY   78  64  61 S9        29.85F
$$

WVZ015-292000-
West Central West Virginia

CITY           SKY/WX    TMP DP  RH WIND       PRES   REMARKS
CHARLESTON     CLOUDY    72  62  71 E6        29.91F
$$

WVZ022-031-292000-
North Central West Virginia

CITY           SKY/WX    TMP DP  RH WIND       PRES   REMARKS
CLARKSBURG     CLOUDY    74  54  49 S7        29.95S
MORGANTOWN     MOSUNNY   76  50  40 SW6       29.95F
$$

WVZ025-035-042-045-292000-
Southern West Virginia

CITY           SKY/WX    TMP DP  RH WIND       PRES   REMARKS
BECKLEY        PTSUNNY   74  52  46 SW12      30.00F
LOGAN            N/A     77  59  53 S8        29.90F
BLUEFIELD      CLOUDY    73  51  46 W8        30.04S
LEWISBURG      PTSUNNY   76  52  42 SW10      30.00F
$$

WVZ047-292000-
Northern Mountains of West Virginia

CITY           SKY/WX    TMP DP  RH WIND       PRES   REMARKS
ELKINS         PTSUNNY   75  50  41 SW8       29.97F
$$

WVZ052-292000-
Eastern Panhandle of West Virginia

CITY           SKY/WX    TMP DP  RH WIND       PRES   REMARKS
MARTINSBURG    MOSUNNY   80  54  40 VRB3      29.95F
PETERSBURG     SUNNY     80  46  29 SW7       29.95S
$$


USA.gov is the U.S. government's official web portal to all federal, state and local government web resources and services.